Time,TemperatureF,DewpointF,PressureIn,WindDirection,WindDirectionDegrees,WindSpeedMPH,WindSpeedGustMPH,Humidity,HourlyPrecipIn,Conditions,Clouds,dailyrainin,SolarRadiationWatts/m^2,SoftwareType,DateUTC
2013-11-17 00:01:00,55.9,44.7,29.80,SE,126,2.0,3.0,66,0.00,,,0.00,0,LWC V2.00 B727,2013-11-17 07:01:00,
2013-11-17 00:06:00,55.8,45.0,29.80,SE,126,2.0,3.0,67,0.00,,,0.00,0,LWC V2.00 B727,2013-11-17 07:06:00,
2013-11-17 00:11:00,55.7,44.9,29.80,SE,126,0.0,2.0,67,0.00,,,0.00,0,LWC V2.00 B727,2013-11-17 07:11:00,
2013-11-17 00:16:00,55.5,44.7,29.80,SE,126,1.0,3.0,67,0.00,,,0.00,0,LWC V2.00 B727,2013-11-17 07:16:00,
2013-11-17 00:21:00,55.3,44.9,29.80,SE,126,1.0,2.0,68,0.00,,,0.00,0,LWC V2.00 B727,2013-11-17 07:21:00,
2013-11-17 00:26:00,55.1,44.7,29.80,SE,126,0.0,2.0,68,0.00,,,0.00,0,LWC V2.00 B727,2013-11-17 07:26:00,
2013-11-17 00:31:00,54.8,44.4,29.81,SE,126,0.0,0.0,68,0.00,,,0.00,0,LWC V2.00 B727,2013-11-17 07:31:00,
2013-11-17 00:36:00,54.6,44.3,29.81,SE,126,0.0,0.0,68,0.00,,,0.00,0,LWC V2.00 B727,2013-11-17 07:36:00,
2013-11-17 00:41:00,54.4,44.4,29.81,SE,126,0.0,0.0,69,0.00,,,0.00,0,LWC V2.00 B727,2013-11-17 07:41:00,
2013-11-17 00:46:00,54.4,44.4,29.81,SE,126,0.0,0.0,69,0.00,,,0.00,0,LWC V2.00 B727,2013-11-17 07:46:00,
2013-11-17 00:51:00,54.4,44.8,29.82,SE,126,0.0,0.0,70,0.00,,,0.00,0,LWC V2.00 B727,2013-11-17 07:51:00,
2013-11-17 00:56:00,54.4,44.8,29.82,SE,126,0.0,0.0,70,0.00,,,0.00,0,LWC V2.00 B727,2013-11-17 07:56:00,
2013-11-17 01:01:00,54.4,44.8,29.82,SE,126,0.0,0.0,70,0.00,,,0.00,0,LWC V2.00 B727,2013-11-17 08:01:00,
2013-11-17 01:06:00,54.4,45.2,29.82,SE,126,0.0,0.0,71,0.00,,,0.00,0,LWC V2.00 B727,2013-11-17 08:06:00,
2013-11-17 01:11:00,54.5,45.3,29.82,SE,126,0.0,0.0,71,0.00,,,0.00,0,LWC V2.00 B727,2013-11-17 08:11:00,
2013-11-17 01:16:00,54.6,45.4,29.83,SE,126,0.0,0.0,71,0.00,,,0.00,0,LWC V2.00 B727,2013-11-17 08:16:00,
2013-11-17 01:21:00,54.6,45.4,29.83,SE,126,0.0,0.0,71,0.00,,,0.00,0,LWC V2.00 B727,2013-11-17 08:21:00,
2013-11-17 01:26:00,54.6,45.4,29.83,SE,126,0.0,0.0,71,0.00,,,0.00,0,LWC V2.00 B727,2013-11-17 08:26:00,
2013-11-17 01:31:00,54.7,45.5,29.83,SE,126,0.0,0.0,71,0.00,,,0.00,0,LWC V2.00 B727,2013-11-17 08:31:00,
2013-11-17 01:36:00,54.8,45.9,29.83,SE,126,0.0,0.0,72,0.00,,,0.00,0,LWC V2.00 B727,2013-11-17 08:36:00,
2013-11-17 01:41:00,54.9,46.0,29.83,SE,126,0.0,0.0,72,0.00,,,0.00,0,LWC V2.00 B727,2013-11-17 08:41:00,
2013-11-17 01:46:00,55.0,46.5,29.83,SE,126,0.0,0.0,73,0.00,,,0.00,0,LWC V2.00 B727,2013-11-17 08:46:00,
2013-11-17 01:51:00,55.0,46.5,29.83,SE,126,0.0,0.0,73,0.00,,,0.00,0,LWC V2.00 B727,2013-11-17 08:51:00,
2013-11-17 01:56:00,55.0,46.5,29.83,SE,126,0.0,0.0,73,0.00,,,0.00,0,LWC V2.00 B727,2013-11-17 08:56:00,
2013-11-17 02:01:00,55.0,46.5,29.83,SE,126,0.0,0.0,73,0.00,,,0.00,0,LWC V2.00 B727,2013-11-17 09:01:00,
2013-11-17 02:06:00,55.1,46.6,29.83,SE,126,0.0,0.0,73,0.00,,,0.00,0,LWC V2.00 B727,2013-11-17 09:06:00,
2013-11-17 02:11:00,55.0,46.5,29.83,SE,126,0.0,0.0,73,0.00,,,0.00,0,LWC V2.00 B727,2013-11-17 09:11:00,
2013-11-17 02:16:00,55.0,46.5,29.83,SE,126,0.0,0.0,73,0.00,,,0.00,0,LWC V2.00 B727,2013-11-17 09:16:00,
2013-11-17 02:21:00,55.0,46.5,29.83,SE,126,0.0,0.0,73,0.00,,,0.00,0,LWC V2.00 B727,2013-11-17 09:21:00,
2013-11-17 02:26:00,55.0,46.9,29.83,SE,126,0.0,0.0,74,0.00,,,0.00,0,LWC V2.00 B727,2013-11-17 09:26:00,
2013-11-17 02:31:00,55.0,46.9,29.83,SE,126,0.0,0.0,74,0.00,,,0.00,0,LWC V2.00 B727,2013-11-17 09:31:00,
2013-11-17 02:36:00,54.9,46.8,29.83,SE,126,0.0,0.0,74,0.00,,,0.00,0,LWC V2.00 B727,2013-11-17 09:36:00,
2013-11-17 02:41:00,54.9,47.1,29.83,SE,126,0.0,0.0,75,0.00,,,0.00,0,LWC V2.00 B727,2013-11-17 09:41:00,
2013-11-17 02:46:00,54.9,47.1,29.83,SE,126,0.0,0.0,75,0.00,,,0.00,0,LWC V2.00 B727,2013-11-17 09:46:00,
2013-11-17 02:51:00,54.7,46.6,29.84,SE,126,0.0,0.0,74,0.00,,,0.00,0,LWC V2.00 B727,2013-11-17 09:51:00,
2013-11-17 02:56:00,54.5,46.4,29.84,SE,126,0.0,0.0,74,0.00,,,0.00,0,LWC V2.00 B727,2013-11-17 09:56:00,
2013-11-17 03:01:00,54.5,46.4,29.83,SE,126,0.0,0.0,74,0.00,,,0.00,0,LWC V2.00 B727,2013-11-17 10:01:00,
2013-11-17 03:06:00,54.5,46.7,29.84,SE,126,0.0,0.0,75,0.00,,,0.00,0,LWC V2.00 B727,2013-11-17 10:06:00,
2013-11-17 03:11:00,54.5,46.7,29.84,SE,126,0.0,0.0,75,0.00,,,0.00,0,LWC V2.00 B727,2013-11-17 10:11:00,
2013-11-17 03:16:00,54.5,47.1,29.84,SE,126,0.0,0.0,76,0.00,,,0.00,0,LWC V2.00 B727,2013-11-17 10:16:00,
2013-11-17 03:21:00,54.5,47.1,29.84,SE,126,0.0,0.0,76,0.00,,,0.00,0,LWC V2.00 B727,2013-11-17 10:21:00,
2013-11-17 03:26:00,54.4,47.0,29.84,SE,126,0.0,0.0,76,0.00,,,0.00,0,LWC V2.00 B727,2013-11-17 10:26:00,
2013-11-17 03:31:00,54.3,46.5,29.84,SE,126,0.0,0.0,75,0.00,,,0.00,0,LWC V2.00 B727,2013-11-17 10:31:00,
2013-11-17 03:36:00,54.1,46.4,29.84,SE,126,0.0,0.0,75,0.00,,,0.00,0,LWC V2.00 B727,2013-11-17 10:36:00,
2013-11-17 03:41:00,53.9,46.2,29.84,SE,126,0.0,0.0,75,0.00,,,0.00,0,LWC V2.00 B727,2013-11-17 10:41:00,
2013-11-17 03:46:00,53.6,45.9,29.84,SE,126,0.0,0.0,75,0.00,,,0.00,0,LWC V2.00 B727,2013-11-17 10:46:00,
2013-11-17 03:51:00,53.6,46.2,29.84,SE,126,0.0,0.0,76,0.00,,,0.00,0,LWC V2.00 B727,2013-11-17 10:51:00,
2013-11-17 03:56:00,53.6,46.6,29.84,SE,126,0.0,0.0,77,0.00,,,0.00,0,LWC V2.00 B727,2013-11-17 10:56:00,
2013-11-17 04:01:00,53.4,46.0,29.84,SE,126,0.0,0.0,76,0.00,,,0.00,0,LWC V2.00 B727,2013-11-17 11:01:00,
2013-11-17 04:06:00,53.2,46.2,29.84,SE,126,0.0,0.0,77,0.00,,,0.00,0,LWC V2.00 B727,2013-11-17 11:06:00,
2013-11-17 04:11:00,53.1,46.1,29.84,SE,126,0.0,0.0,77,0.00,,,0.00,0,LWC V2.00 B727,2013-11-17 11:11:00,
2013-11-17 04:16:00,53.1,46.4,29.84,SE,126,0.0,0.0,78,0.00,,,0.00,0,LWC V2.00 B727,2013-11-17 11:16:00,
2013-11-17 04:21:00,53.2,46.5,29.84,SE,126,0.0,0.0,78,0.00,,,0.00,0,LWC V2.00 B727,2013-11-17 11:21:00,
2013-11-17 04:26:00,53.1,46.4,29.85,SE,126,0.0,0.0,78,0.00,,,0.00,0,LWC V2.00 B727,2013-11-17 11:26:00,
2013-11-17 04:31:00,53.1,46.4,29.85,SE,126,0.0,0.0,78,0.00,,,0.00,0,LWC V2.00 B727,2013-11-17 11:31:00,
2013-11-17 04:36:00,53.1,46.8,29.85,SE,126,0.0,0.0,79,0.00,,,0.00,0,LWC V2.00 B727,2013-11-17 11:36:00,
2013-11-17 04:41:00,53.1,46.8,29.85,SE,126,0.0,0.0,79,0.00,,,0.00,0,LWC V2.00 B727,2013-11-17 11:41:00,
2013-11-17 04:46:00,53.1,46.8,29.85,SE,126,0.0,0.0,79,0.00,,,0.00,0,LWC V2.00 B727,2013-11-17 11:46:00,
2013-11-17 04:51:00,53.2,47.2,29.85,SE,126,0.0,0.0,80,0.00,,,0.00,0,LWC V2.00 B727,2013-11-17 11:51:00,
2013-11-17 04:56:00,53.2,47.2,29.85,SE,126,0.0,0.0,80,0.00,,,0.00,0,LWC V2.00 B727,2013-11-17 11:56:00,
2013-11-17 05:01:00,53.3,47.3,29.86,SE,126,0.0,0.0,80,0.00,,,0.00,0,LWC V2.00 B727,2013-11-17 12:01:00,
2013-11-17 05:06:00,53.5,47.1,29.86,SE,126,0.0,0.0,79,0.00,,,0.00,0,LWC V2.00 B727,2013-11-17 12:06:00,
2013-11-17 05:11:00,53.4,46.7,29.86,SE,126,0.0,0.0,78,0.00,,,0.00,0,LWC V2.00 B727,2013-11-17 12:11:00,
2013-11-17 05:16:00,53.3,46.6,29.86,SE,126,0.0,0.0,78,0.00,,,0.00,0,LWC V2.00 B727,2013-11-17 12:16:00,
2013-11-17 05:21:00,53.3,47.0,29.86,SE,126,0.0,0.0,79,0.00,,,0.00,0,LWC V2.00 B727,2013-11-17 12:21:00,
2013-11-17 05:26:00,53.3,46.6,29.86,SE,126,0.0,0.0,78,0.00,,,0.00,0,LWC V2.00 B727,2013-11-17 12:26:00,
2013-11-17 05:31:00,53.1,46.4,29.87,SE,126,0.0,0.0,78,0.00,,,0.00,0,LWC V2.00 B727,2013-11-17 12:31:00,
2013-11-17 05:36:00,52.8,46.5,29.87,SE,126,0.0,0.0,79,0.00,,,0.00,0,LWC V2.00 B727,2013-11-17 12:36:00,
2013-11-17 05:41:00,52.7,46.4,29.87,SE,126,0.0,0.0,79,0.00,,,0.00,0,LWC V2.00 B727,2013-11-17 12:41:00,
2013-11-17 05:46:00,52.6,46.6,29.87,SE,126,0.0,0.0,80,0.00,,,0.00,0,LWC V2.00 B727,2013-11-17 12:46:00,
2013-11-17 05:51:00,52.6,46.6,29.87,SE,126,0.0,0.0,80,0.00,,,0.00,0,LWC V2.00 B727,2013-11-17 12:51:00,
2013-11-17 05:56:00,52.5,46.5,29.87,SE,126,0.0,0.0,80,0.00,,,0.00,0,LWC V2.00 B727,2013-11-17 12:56:00,
2013-11-17 06:01:00,52.6,46.9,29.88,SE,126,0.0,0.0,81,0.00,,,0.00,0,LWC V2.00 B727,2013-11-17 13:01:00,
2013-11-17 06:06:00,52.8,47.1,29.88,SE,126,0.0,0.0,81,0.00,,,0.00,0,LWC V2.00 B727,2013-11-17 13:06:00,
2013-11-17 06:11:00,52.9,47.2,29.88,SE,126,0.0,0.0,81,0.00,,,0.00,0,LWC V2.00 B727,2013-11-17 13:11:00,
2013-11-17 06:16:00,52.8,47.1,29.88,SE,126,0.0,0.0,81,0.00,,,0.00,0,LWC V2.00 B727,2013-11-17 13:16:00,
2013-11-17 06:21:00,52.9,47.2,29.89,SE,126,0.0,0.0,81,0.00,,,0.00,0,LWC V2.00 B727,2013-11-17 13:21:00,
2013-11-17 06:26:00,53.0,47.3,29.89,SE,126,0.0,0.0,81,0.00,,,0.00,0,LWC V2.00 B727,2013-11-17 13:26:00,
2013-11-17 06:31:00,52.9,47.2,29.89,SE,126,0.0,0.0,81,0.00,,,0.00,0,LWC V2.00 B727,2013-11-17 13:31:00,
2013-11-17 06:36:00,52.9,47.2,29.89,SE,126,0.0,0.0,81,0.00,,,0.00,0,LWC V2.00 B727,2013-11-17 13:36:00,
2013-11-17 06:41:00,52.9,47.6,29.89,SE,126,0.0,0.0,82,0.00,,,0.00,0,LWC V2.00 B727,2013-11-17 13:41:00,
2013-11-17 06:46:00,53.0,47.7,29.89,SE,126,0.0,0.0,82,0.00,,,0.00,0,LWC V2.00 B727,2013-11-17 13:46:00,
2013-11-17 06:51:00,52.8,47.1,29.90,SE,126,0.0,0.0,81,0.00,,,0.00,0,LWC V2.00 B727,2013-11-17 13:51:00,
2013-11-17 06:56:00,52.4,46.4,29.90,SE,126,0.0,0.0,80,0.00,,,0.00,5,LWC V2.00 B727,2013-11-17 13:56:00,
2013-11-17 07:01:00,52.4,46.7,29.90,SE,126,0.0,0.0,81,0.00,,,0.00,7,LWC V2.00 B727,2013-11-17 14:01:00,
2013-11-17 07:06:00,52.4,46.7,29.90,SE,126,0.0,0.0,81,0.00,,,0.00,11,LWC V2.00 B727,2013-11-17 14:06:00,
2013-11-17 07:11:00,52.1,46.4,29.90,SE,126,0.0,0.0,81,0.00,,,0.00,11,LWC V2.00 B727,2013-11-17 14:11:00,
2013-11-17 07:16:00,51.8,46.2,29.91,SE,126,0.0,0.0,81,0.00,,,0.00,12,LWC V2.00 B727,2013-11-17 14:16:00,
2013-11-17 07:21:00,51.6,46.0,29.91,SE,126,0.0,0.0,81,0.00,,,0.00,16,LWC V2.00 B727,2013-11-17 14:21:00,
2013-11-17 07:26:00,51.6,46.3,29.91,SE,126,0.0,0.0,82,0.00,,,0.00,18,LWC V2.00 B727,2013-11-17 14:26:00,
2013-11-17 07:31:00,51.8,46.5,29.92,SE,126,0.0,0.0,82,0.00,,,0.00,19,LWC V2.00 B727,2013-11-17 14:31:00,
2013-11-17 07:36:00,51.8,46.5,29.92,ESE,118,0.0,0.0,82,0.00,,,0.00,21,LWC V2.00 B727,2013-11-17 14:36:00,
2013-11-17 07:41:00,51.9,46.9,29.92,ESE,118,0.0,0.0,83,0.00,,,0.00,23,LWC V2.00 B727,2013-11-17 14:41:00,
2013-11-17 07:46:00,52.2,47.2,29.92,ESE,118,0.0,0.0,83,0.00,,,0.00,25,LWC V2.00 B727,2013-11-17 14:46:00,
2013-11-17 07:51:00,52.1,46.8,29.92,ESE,118,0.0,0.0,82,0.00,,,0.00,100,LWC V2.00 B727,2013-11-17 14:51:00,
2013-11-17 07:56:00,52.4,47.4,29.92,ESE,118,0.0,0.0,83,0.00,,,0.00,158,LWC V2.00 B727,2013-11-17 14:56:00,
2013-11-17 08:01:00,53.7,48.7,29.93,ESE,118,0.0,0.0,83,0.00,,,0.00,172,LWC V2.00 B727,2013-11-17 15:01:00,
2013-11-17 08:06:00,54.9,48.8,29.92,ESE,118,0.0,0.0,80,0.00,,,0.00,185,LWC V2.00 B727,2013-11-17 15:06:00,
2013-11-17 08:11:00,55.9,49.5,29.93,ESE,118,0.0,0.0,79,0.00,,,0.00,200,LWC V2.00 B727,2013-11-17 15:11:00,
2013-11-17 08:16:00,56.6,49.1,29.93,ESE,118,0.0,0.0,76,0.00,,,0.00,214,LWC V2.00 B727,2013-11-17 15:16:00,
2013-11-17 08:21:00,57.1,48.9,29.93,ESE,118,0.0,0.0,74,0.00,,,0.00,227,LWC V2.00 B727,2013-11-17 15:21:00,
2013-11-17 08:26:00,57.7,49.1,29.93,ESE,118,0.0,0.0,73,0.00,,,0.00,241,LWC V2.00 B727,2013-11-17 15:26:00,
2013-11-17 08:31:00,58.2,49.2,29.93,ESE,118,0.0,0.0,72,0.00,,,0.00,258,LWC V2.00 B727,2013-11-17 15:31:00,
2013-11-17 08:36:00,58.5,49.1,29.93,ESE,118,0.0,0.0,71,0.00,,,0.00,274,LWC V2.00 B727,2013-11-17 15:36:00,
2013-11-17 08:41:00,58.9,49.5,29.93,ESE,118,0.0,0.0,71,0.00,,,0.00,288,LWC V2.00 B727,2013-11-17 15:41:00,
2013-11-17 08:46:00,59.1,49.3,29.93,ESE,118,0.0,0.0,70,0.00,,,0.00,306,LWC V2.00 B727,2013-11-17 15:46:00,
2013-11-17 08:51:00,59.1,49.3,29.94,ESE,118,0.0,0.0,70,0.00,,,0.00,320,LWC V2.00 B727,2013-11-17 15:51:00,
2013-11-17 08:56:00,59.3,49.1,29.94,ESE,118,0.0,0.0,69,0.00,,,0.00,334,LWC V2.00 B727,2013-11-17 15:56:00,
2013-11-17 09:01:00,59.5,49.7,29.94,ESE,118,0.0,0.0,70,0.00,,,0.00,346,LWC V2.00 B727,2013-11-17 16:01:00,
2013-11-17 09:06:00,60.0,49.8,29.94,ESE,120,0.0,0.0,69,0.00,,,0.00,362,LWC V2.00 B727,2013-11-17 16:06:00,
2013-11-17 09:11:00,60.2,49.6,29.94,ESE,120,0.0,0.0,68,0.00,,,0.00,376,LWC V2.00 B727,2013-11-17 16:11:00,
2013-11-17 09:16:00,60.6,49.2,29.94,ESE,114,0.0,0.0,66,0.00,,,0.00,388,LWC V2.00 B727,2013-11-17 16:16:00,
2013-11-17 09:21:00,61.2,49.3,29.94,ESE,114,0.0,0.0,65,0.00,,,0.00,403,LWC V2.00 B727,2013-11-17 16:21:00,
2013-11-17 09:26:00,61.6,48.4,29.95,WSW,247,2.0,3.0,62,0.00,,,0.00,418,LWC V2.00 B727,2013-11-17 16:26:00,
2013-11-17 09:31:00,61.8,48.2,29.95,WSW,248,0.0,2.0,61,0.00,,,0.00,429,LWC V2.00 B727,2013-11-17 16:31:00,
2013-11-17 09:36:00,62.1,48.0,29.95,WSW,258,1.0,1.0,60,0.00,,,0.00,439,LWC V2.00 B727,2013-11-17 16:36:00,
2013-11-17 09:41:00,62.2,48.1,29.95,WSW,257,0.0,3.0,60,0.00,,,0.00,454,LWC V2.00 B727,2013-11-17 16:41:00,
2013-11-17 09:46:00,62.5,47.5,29.95,WSW,257,1.0,3.0,58,0.00,,,0.00,464,LWC V2.00 B727,2013-11-17 16:46:00,
2013-11-17 09:51:00,62.7,47.2,29.95,WSW,257,0.0,0.0,57,0.00,,,0.00,476,LWC V2.00 B727,2013-11-17 16:51:00,
2013-11-17 09:56:00,63.4,47.4,29.96,WSW,257,0.0,3.0,56,0.00,,,0.00,490,LWC V2.00 B727,2013-11-17 16:56:00,
2013-11-17 10:01:00,63.7,47.2,29.96,WSW,257,0.0,0.0,55,0.00,,,0.00,499,LWC V2.00 B727,2013-11-17 17:01:00,
2013-11-17 10:06:00,63.7,46.7,29.96,WSW,257,0.0,3.0,54,0.00,,,0.00,510,LWC V2.00 B727,2013-11-17 17:06:00,
2013-11-17 10:11:00,63.9,47.4,29.96,WSW,240,0.0,2.0,55,0.00,,,0.00,520,LWC V2.00 B727,2013-11-17 17:11:00,
2013-11-17 10:16:00,64.1,47.1,29.96,SW,234,0.0,4.0,54,0.00,,,0.00,529,LWC V2.00 B727,2013-11-17 17:16:00,
2013-11-17 10:21:00,64.3,47.3,29.96,SW,226,4.0,4.0,54,0.00,,,0.00,538,LWC V2.00 B727,2013-11-17 17:21:00,
2013-11-17 10:26:00,64.1,46.6,29.96,SW,234,0.0,3.0,53,0.00,,,0.00,547,LWC V2.00 B727,2013-11-17 17:26:00,
2013-11-17 10:31:00,64.2,46.7,29.96,SW,235,0.0,2.0,53,0.00,,,0.00,555,LWC V2.00 B727,2013-11-17 17:31:00,
2013-11-17 10:36:00,64.5,46.5,29.96,SW,236,0.0,3.0,52,0.00,,,0.00,561,LWC V2.00 B727,2013-11-17 17:36:00,
2013-11-17 10:41:00,64.7,46.7,29.96,WSW,251,0.0,0.0,52,0.00,,,0.00,568,LWC V2.00 B727,2013-11-17 17:41:00,
2013-11-17 10:46:00,65.1,46.5,29.96,WSW,252,0.0,0.0,51,0.00,,,0.00,580,LWC V2.00 B727,2013-11-17 17:46:00,
2013-11-17 10:51:00,66.0,46.8,29.96,WSW,253,0.0,3.0,50,0.00,,,0.00,587,LWC V2.00 B727,2013-11-17 17:51:00,
2013-11-17 10:56:00,66.1,46.4,29.96,WSW,253,0.0,0.0,49,0.00,,,0.00,594,LWC V2.00 B727,2013-11-17 17:56:00,
2013-11-17 11:01:00,67.2,46.8,29.96,West,269,0.0,0.0,48,0.00,,,0.00,601,LWC V2.00 B727,2013-11-17 18:01:00,
2013-11-17 11:06:00,67.8,46.3,29.96,WNW,290,0.0,2.0,46,0.00,,,0.00,605,LWC V2.00 B727,2013-11-17 18:06:00,
2013-11-17 11:11:00,68.2,46.0,29.96,NW,309,0.0,3.0,45,0.00,,,0.00,610,LWC V2.00 B727,2013-11-17 18:11:00,
2013-11-17 11:16:00,68.1,45.9,29.96,NW,318,0.0,3.0,45,0.00,,,0.00,617,LWC V2.00 B727,2013-11-17 18:16:00,
2013-11-17 11:21:00,68.6,45.8,29.96,NNW,334,0.0,3.0,44,0.00,,,0.00,624,LWC V2.00 B727,2013-11-17 18:21:00,
2013-11-17 11:26:00,68.1,44.8,29.95,NNW,334,0.0,2.0,43,0.00,,,0.00,624,LWC V2.00 B727,2013-11-17 18:26:00,
2013-11-17 11:31:00,68.1,45.4,29.95,NNW,339,1.0,3.0,44,0.00,,,0.00,629,LWC V2.00 B727,2013-11-17 18:31:00,
2013-11-17 11:36:00,68.1,44.8,29.95,NNW,339,0.0,0.0,43,0.00,,,0.00,633,LWC V2.00 B727,2013-11-17 18:36:00,
2013-11-17 11:41:00,68.5,43.2,29.95,South,176,1.0,9.0,40,0.00,,,0.00,640,LWC V2.00 B727,2013-11-17 18:41:00,
2013-11-17 11:46:00,69.3,42.6,29.94,SSE,155,4.0,8.0,38,0.00,,,0.00,643,LWC V2.00 B727,2013-11-17 18:46:00,
2013-11-17 11:51:00,69.8,42.3,29.94,SSE,155,2.0,8.0,37,0.00,,,0.00,645,LWC V2.00 B727,2013-11-17 18:51:00,
2013-11-17 11:56:00,69.6,42.9,29.94,South,183,4.0,6.0,38,0.00,,,0.00,645,LWC V2.00 B727,2013-11-17 18:56:00,
2013-11-17 12:01:00,69.2,42.5,29.93,SSE,157,0.0,4.0,38,0.00,,,0.00,645,LWC V2.00 B727,2013-11-17 19:01:00,
2013-11-17 12:06:00,69.7,42.9,29.93,SSW,208,2.0,6.0,38,0.00,,,0.00,652,LWC V2.00 B727,2013-11-17 19:06:00,
2013-11-17 12:11:00,70.3,42.8,29.93,South,191,5.0,6.0,37,0.00,,,0.00,645,LWC V2.00 B727,2013-11-17 19:11:00,
2013-11-17 12:16:00,70.3,42.8,29.93,SSW,197,3.0,5.0,37,0.00,,,0.00,647,LWC V2.00 B727,2013-11-17 19:16:00,
2013-11-17 12:21:00,70.6,42.3,29.93,SSE,154,2.0,7.0,36,0.00,,,0.00,647,LWC V2.00 B727,2013-11-17 19:21:00,
2013-11-17 12:26:00,71.4,42.3,29.93,SSE,166,5.0,7.0,35,0.00,,,0.00,647,LWC V2.00 B727,2013-11-17 19:26:00,
2013-11-17 12:31:00,70.8,42.5,29.92,SW,223,0.0,5.0,36,0.00,,,0.00,645,LWC V2.00 B727,2013-11-17 19:31:00,
2013-11-17 12:36:00,70.1,42.6,29.92,South,174,1.0,4.0,37,0.00,,,0.00,642,LWC V2.00 B727,2013-11-17 19:36:00,
2013-11-17 12:41:00,70.3,42.1,29.92,SSW,192,9.0,9.0,36,0.00,,,0.00,638,LWC V2.00 B727,2013-11-17 19:41:00,
2013-11-17 12:46:00,71.0,42.7,29.92,South,186,3.0,7.0,36,0.00,,,0.00,638,LWC V2.00 B727,2013-11-17 19:46:00,
2013-11-17 12:51:00,71.6,43.2,29.91,SSW,197,0.0,8.0,36,0.00,,,0.00,635,LWC V2.00 B727,2013-11-17 19:51:00,
2013-11-17 12:56:00,71.3,43.0,29.91,SW,220,0.0,2.0,36,0.00,,,0.00,629,LWC V2.00 B727,2013-11-17 19:56:00,
2013-11-17 13:01:00,71.7,42.6,29.91,SSE,159,0.0,5.0,35,0.00,,,0.00,626,LWC V2.00 B727,2013-11-17 20:01:00,
2013-11-17 13:06:00,72.2,43.0,29.91,SSW,199,0.0,6.0,35,0.00,,,0.00,622,LWC V2.00 B727,2013-11-17 20:06:00,
2013-11-17 13:11:00,72.2,43.0,29.91,SSE,159,2.0,8.0,35,0.00,,,0.00,617,LWC V2.00 B727,2013-11-17 20:11:00,
2013-11-17 13:16:00,72.6,42.6,29.91,SSE,149,3.0,8.0,34,0.00,,,0.00,610,LWC V2.00 B727,2013-11-17 20:16:00,
2013-11-17 13:21:00,72.3,43.1,29.90,South,180,0.0,4.0,35,0.00,,,0.00,608,LWC V2.00 B727,2013-11-17 20:21:00,
2013-11-17 13:26:00,72.7,42.7,29.90,SSW,201,4.0,10.0,34,0.00,,,0.00,603,LWC V2.00 B727,2013-11-17 20:26:00,
2013-11-17 13:31:00,72.7,42.7,29.90,South,185,6.0,7.0,34,0.00,,,0.00,599,LWC V2.00 B727,2013-11-17 20:31:00,
2013-11-17 13:36:00,72.6,42.6,29.90,SE,126,2.0,6.0,34,0.00,,,0.00,589,LWC V2.00 B727,2013-11-17 20:36:00,
2013-11-17 13:41:00,72.5,42.5,29.90,South,184,3.0,10.0,34,0.00,,,0.00,584,LWC V2.00 B727,2013-11-17 20:41:00,
2013-11-17 13:46:00,73.3,42.4,29.89,SE,127,3.0,7.0,33,0.00,,,0.00,577,LWC V2.00 B727,2013-11-17 20:46:00,
2013-11-17 13:51:00,73.1,42.3,29.89,SE,132,3.0,11.0,33,0.00,,,0.00,571,LWC V2.00 B727,2013-11-17 20:51:00,
2013-11-17 13:56:00,72.8,42.8,29.89,SSE,163,4.0,5.0,34,0.00,,,0.00,554,LWC V2.00 B727,2013-11-17 20:56:00,
2013-11-17 14:01:00,72.9,42.9,29.89,SE,140,7.0,9.0,34,0.00,,,0.00,570,LWC V2.00 B727,2013-11-17 21:01:00,
2013-11-17 14:06:00,73.4,43.3,29.89,ESE,104,13.0,15.0,34,0.00,,,0.00,564,LWC V2.00 B727,2013-11-17 21:06:00,
2013-11-17 14:11:00,73.1,43.0,29.89,South,169,2.0,5.0,34,0.00,,,0.00,524,LWC V2.00 B727,2013-11-17 21:11:00,
2013-11-17 14:16:00,72.5,42.5,29.89,ESE,119,0.0,8.0,34,0.00,,,0.00,239,LWC V2.00 B727,2013-11-17 21:16:00,
2013-11-17 14:21:00,72.0,43.6,29.90,ESE,116,7.0,11.0,36,0.00,,,0.00,160,LWC V2.00 B727,2013-11-17 21:21:00,
2013-11-17 14:26:00,71.7,44.0,29.90,ESE,112,3.0,7.0,37,0.00,,,0.00,526,LWC V2.00 B727,2013-11-17 21:26:00,
2013-11-17 14:31:00,72.4,43.2,29.89,ENE,73,7.0,7.0,35,0.00,,,0.00,512,LWC V2.00 B727,2013-11-17 21:31:00,
2013-11-17 14:36:00,72.3,43.8,29.89,East,80,6.0,8.0,36,0.00,,,0.00,515,LWC V2.00 B727,2013-11-17 21:36:00,
2013-11-17 14:41:00,71.8,43.4,29.89,ESE,118,1.0,8.0,36,0.00,,,0.00,146,LWC V2.00 B727,2013-11-17 21:41:00,
2013-11-17 14:46:00,71.4,43.8,29.89,East,101,2.0,2.0,37,0.00,,,0.00,533,LWC V2.00 B727,2013-11-17 21:46:00,
2013-11-17 14:51:00,72.2,43.7,29.89,ESE,111,4.0,6.0,36,0.00,,,0.00,489,LWC V2.00 B727,2013-11-17 21:51:00,
2013-11-17 14:56:00,72.3,43.8,29.89,SE,124,4.0,4.0,36,0.00,,,0.00,432,LWC V2.00 B727,2013-11-17 21:56:00,
2013-11-17 15:01:00,72.8,45.0,29.89,East,81,7.0,10.0,37,0.00,,,0.00,417,LWC V2.00 B727,2013-11-17 22:01:00,
2013-11-17 15:06:00,72.5,44.7,29.89,SE,145,6.0,7.0,37,0.00,,,0.00,399,LWC V2.00 B727,2013-11-17 22:06:00,
2013-11-17 15:11:00,72.5,44.7,29.89,SE,137,3.0,6.0,37,0.00,,,0.00,387,LWC V2.00 B727,2013-11-17 22:11:00,
2013-11-17 15:16:00,72.4,44.6,29.89,SE,141,3.0,7.0,37,0.00,,,0.00,374,LWC V2.00 B727,2013-11-17 22:16:00,
2013-11-17 15:21:00,72.5,44.7,29.89,East,91,5.0,7.0,37,0.00,,,0.00,362,LWC V2.00 B727,2013-11-17 22:21:00,
2013-11-17 15:26:00,72.2,43.7,29.89,ENE,68,8.0,10.0,36,0.00,,,0.00,346,LWC V2.00 B727,2013-11-17 22:26:00,
2013-11-17 15:31:00,72.1,44.4,29.88,East,87,6.0,7.0,37,0.00,,,0.00,323,LWC V2.00 B727,2013-11-17 22:31:00,
2013-11-17 15:36:00,72.2,44.5,29.88,East,80,2.0,4.0,37,0.00,,,0.00,309,LWC V2.00 B727,2013-11-17 22:36:00,
2013-11-17 15:41:00,72.3,43.8,29.88,ESE,121,2.0,10.0,36,0.00,,,0.00,309,LWC V2.00 B727,2013-11-17 22:41:00,
2013-11-17 15:46:00,72.5,44.0,29.88,SE,130,2.0,4.0,36,0.00,,,0.00,311,LWC V2.00 B727,2013-11-17 22:46:00,
2013-11-17 15:51:00,73.0,43.7,29.88,ESE,117,3.0,8.0,35,0.00,,,0.00,297,LWC V2.00 B727,2013-11-17 22:51:00,
2013-11-17 15:56:00,73.0,43.7,29.88,ESE,109,5.0,9.0,35,0.00,,,0.00,241,LWC V2.00 B727,2013-11-17 22:56:00,
2013-11-17 16:01:00,72.8,43.5,29.89,SE,136,6.0,10.0,35,0.00,,,0.00,239,LWC V2.00 B727,2013-11-17 23:01:00,
2013-11-17 16:06:00,72.4,43.9,29.89,SE,128,5.0,8.0,36,0.00,,,0.00,116,LWC V2.00 B727,2013-11-17 23:06:00,
2013-11-17 16:11:00,71.8,44.1,29.89,ESE,119,6.0,6.0,37,0.00,,,0.00,195,LWC V2.00 B727,2013-11-17 23:11:00,
2013-11-17 16:16:00,71.4,43.8,29.88,SSE,150,4.0,4.0,37,0.00,,,0.00,54,LWC V2.00 B727,2013-11-17 23:16:00,
2013-11-17 16:21:00,71.2,44.3,29.88,South,180,2.0,3.0,38,0.00,,,0.00,51,LWC V2.00 B727,2013-11-17 23:21:00,
2013-11-17 16:26:00,70.9,44.0,29.89,South,188,0.0,2.0,38,0.00,,,0.00,114,LWC V2.00 B727,2013-11-17 23:26:00,
2013-11-17 16:31:00,70.7,44.5,29.89,South,187,0.0,3.0,39,0.00,,,0.00,93,LWC V2.00 B727,2013-11-17 23:31:00,
2013-11-17 16:36:00,70.7,44.5,29.89,South,189,1.0,3.0,39,0.00,,,0.00,86,LWC V2.00 B727,2013-11-17 23:36:00,
2013-11-17 16:41:00,70.7,44.5,29.88,SW,214,1.0,4.0,39,0.00,,,0.00,54,LWC V2.00 B727,2013-11-17 23:41:00,
2013-11-17 16:46:00,70.5,44.3,29.89,SW,216,1.0,3.0,39,0.00,,,0.00,37,LWC V2.00 B727,2013-11-17 23:46:00,
2013-11-17 16:51:00,70.4,44.2,29.89,SSW,213,0.0,1.0,39,0.00,,,0.00,28,LWC V2.00 B727,2013-11-17 23:51:00,
2013-11-17 16:56:00,70.2,44.7,29.88,SW,214,0.0,2.0,40,0.00,,,0.00,25,LWC V2.00 B727,2013-11-17 23:56:00,
2013-11-17 17:01:00,70.0,44.6,29.88,SW,214,2.0,3.0,40,0.00,,,0.00,21,LWC V2.00 B727,2013-11-18 00:01:00,
2013-11-17 17:06:00,69.6,44.2,29.89,SW,216,2.0,3.0,40,0.00,,,0.00,16,LWC V2.00 B727,2013-11-18 00:06:00,
2013-11-17 17:11:00,69.2,44.5,29.88,SW,216,0.0,0.0,41,0.00,,,0.00,12,LWC V2.00 B727,2013-11-18 00:11:00,
2013-11-17 17:16:00,69.0,44.3,29.88,SW,216,0.0,1.0,41,0.00,,,0.00,9,LWC V2.00 B727,2013-11-18 00:16:00,
2013-11-17 17:21:00,68.7,44.0,29.89,SW,216,0.0,0.0,41,0.00,,,0.00,5,LWC V2.00 B727,2013-11-18 00:21:00,
2013-11-17 17:26:00,68.4,44.4,29.89,SW,216,0.0,0.0,42,0.00,,,0.00,0,LWC V2.00 B727,2013-11-18 00:26:00,
2013-11-17 17:31:00,68.0,44.0,29.89,SW,216,0.0,0.0,42,0.00,,,0.00,0,LWC V2.00 B727,2013-11-18 00:31:00,
2013-11-17 17:36:00,67.7,44.4,29.89,SW,216,0.0,0.0,43,0.00,,,0.00,0,LWC V2.00 B727,2013-11-18 00:36:00,
2013-11-17 17:41:00,67.4,44.1,29.89,SW,216,0.0,0.0,43,0.00,,,0.00,0,LWC V2.00 B727,2013-11-18 00:41:00,
2013-11-17 17:46:00,67.2,43.9,29.89,SW,216,0.0,0.0,43,0.00,,,0.00,0,LWC V2.00 B727,2013-11-18 00:46:00,
2013-11-17 17:51:00,66.9,43.7,29.90,SW,216,0.0,0.0,43,0.00,,,0.00,0,LWC V2.00 B727,2013-11-18 00:51:00,
2013-11-17 17:56:00,66.7,44.1,29.90,SW,216,0.0,0.0,44,0.00,,,0.00,0,LWC V2.00 B727,2013-11-18 00:56:00,
2013-11-17 18:01:00,66.5,43.9,29.90,SW,216,0.0,0.0,44,0.00,,,0.00,0,LWC V2.00 B727,2013-11-18 01:01:00,
2013-11-17 18:06:00,66.3,43.7,29.91,SW,216,0.0,0.0,44,0.00,,,0.00,0,LWC V2.00 B727,2013-11-18 01:06:00,
2013-11-17 18:11:00,66.1,43.5,29.91,SW,216,0.0,0.0,44,0.00,,,0.00,0,LWC V2.00 B727,2013-11-18 01:11:00,
2013-11-17 18:16:00,65.7,43.8,29.91,SW,217,0.0,1.0,45,0.00,,,0.00,0,LWC V2.00 B727,2013-11-18 01:16:00,
2013-11-17 18:21:00,65.3,43.4,29.91,SW,217,0.0,0.0,45,0.00,,,0.00,0,LWC V2.00 B727,2013-11-18 01:21:00,
2013-11-17 18:26:00,65.0,43.7,29.91,SW,217,0.0,0.0,46,0.00,,,0.00,0,LWC V2.00 B727,2013-11-18 01:26:00,
2013-11-17 18:31:00,64.9,43.6,29.91,SW,217,0.0,1.0,46,0.00,,,0.00,0,LWC V2.00 B727,2013-11-18 01:31:00,
2013-11-17 18:36:00,64.5,43.3,29.91,SW,217,0.0,0.0,46,0.00,,,0.00,0,LWC V2.00 B727,2013-11-18 01:36:00,
2013-11-17 18:41:00,64.2,44.1,29.91,WSW,242,0.0,2.0,48,0.00,,,0.00,0,LWC V2.00 B727,2013-11-18 01:41:00,
2013-11-17 18:46:00,63.8,44.3,29.92,WSW,242,0.0,0.0,49,0.00,,,0.00,0,LWC V2.00 B727,2013-11-18 01:46:00,
2013-11-17 18:51:00,63.6,44.6,29.92,WSW,242,0.0,0.0,50,0.00,,,0.00,0,LWC V2.00 B727,2013-11-18 01:51:00,
2013-11-17 18:56:00,63.4,45.0,29.92,WSW,245,0.0,0.0,51,0.00,,,0.00,0,LWC V2.00 B727,2013-11-18 01:56:00,
2013-11-17 19:01:00,63.2,44.8,29.92,WSW,245,0.0,1.0,51,0.00,,,0.00,0,LWC V2.00 B727,2013-11-18 02:01:00,
2013-11-17 19:06:00,62.9,45.0,29.92,West,276,0.0,4.0,52,0.00,,,0.00,0,LWC V2.00 B727,2013-11-18 02:06:00,
2013-11-17 19:11:00,62.9,45.0,29.92,NW,306,0.0,0.0,52,0.00,,,0.00,0,LWC V2.00 B727,2013-11-18 02:11:00,
2013-11-17 19:16:00,62.8,44.9,29.92,NW,306,0.0,1.0,52,0.00,,,0.00,0,LWC V2.00 B727,2013-11-18 02:16:00,
2013-11-17 19:21:00,62.6,45.2,29.92,NW,306,0.0,2.0,53,0.00,,,0.00,0,LWC V2.00 B727,2013-11-18 02:21:00,
2013-11-17 19:26:00,62.5,45.1,29.92,WNW,303,0.0,0.0,53,0.00,,,0.00,0,LWC V2.00 B727,2013-11-18 02:26:00,
2013-11-17 19:31:00,62.3,44.9,29.92,WNW,303,0.0,0.0,53,0.00,,,0.00,0,LWC V2.00 B727,2013-11-18 02:31:00,
2013-11-17 19:36:00,62.3,44.9,29.92,WNW,303,0.0,0.0,53,0.00,,,0.00,0,LWC V2.00 B727,2013-11-18 02:36:00,
2013-11-17 19:41:00,62.1,44.8,29.92,ENE,78,0.0,2.0,53,0.00,,,0.00,0,LWC V2.00 B727,2013-11-18 02:41:00,
2013-11-17 19:46:00,61.9,44.6,29.92,ENE,78,0.0,0.0,53,0.00,,,0.00,0,LWC V2.00 B727,2013-11-18 02:46:00,
2013-11-17 19:51:00,61.8,44.5,29.92,ENE,78,0.0,0.0,53,0.00,,,0.00,0,LWC V2.00 B727,2013-11-18 02:51:00,
2013-11-17 19:56:00,61.6,44.8,29.92,ENE,78,0.0,0.0,54,0.00,,,0.00,0,LWC V2.00 B727,2013-11-18 02:56:00,
2013-11-17 20:01:00,61.5,44.7,29.92,ENE,78,0.0,0.0,54,0.00,,,0.00,0,LWC V2.00 B727,2013-11-18 03:01:00,
2013-11-17 20:06:00,61.4,44.6,29.92,ENE,78,0.0,0.0,54,0.00,,,0.00,0,LWC V2.00 B727,2013-11-18 03:06:00,
2013-11-17 20:11:00,61.2,44.4,29.92,ENE,78,0.0,0.0,54,0.00,,,0.00,0,LWC V2.00 B727,2013-11-18 03:11:00,
2013-11-17 20:16:00,61.1,44.8,29.92,ENE,78,0.0,0.0,55,0.00,,,0.00,0,LWC V2.00 B727,2013-11-18 03:16:00,
2013-11-17 20:21:00,61.0,44.7,29.92,ENE,78,0.0,0.0,55,0.00,,,0.00,0,LWC V2.00 B727,2013-11-18 03:21:00,
2013-11-17 20:26:00,60.9,44.6,29.92,ENE,78,0.0,0.0,55,0.00,,,0.00,0,LWC V2.00 B727,2013-11-18 03:26:00,
2013-11-17 20:31:00,60.8,44.5,29.92,ENE,78,0.0,0.0,55,0.00,,,0.00,0,LWC V2.00 B727,2013-11-18 03:31:00,
2013-11-17 20:36:00,60.7,44.4,29.92,ENE,75,0.0,0.0,55,0.00,,,0.00,0,LWC V2.00 B727,2013-11-18 03:36:00,
2013-11-17 20:41:00,60.6,44.3,29.92,NE,48,0.0,0.0,55,0.00,,,0.00,0,LWC V2.00 B727,2013-11-18 03:41:00,
2013-11-17 20:46:00,60.5,43.8,29.92,NE,48,0.0,0.0,54,0.00,,,0.00,0,LWC V2.00 B727,2013-11-18 03:46:00,
2013-11-17 20:51:00,60.6,43.4,29.93,NE,47,0.0,0.0,53,0.00,,,0.00,0,LWC V2.00 B727,2013-11-18 03:51:00,
2013-11-17 20:56:00,60.6,43.4,29.93,NE,47,0.0,0.0,53,0.00,,,0.00,0,LWC V2.00 B727,2013-11-18 03:56:00,
2013-11-17 21:01:00,60.7,43.5,29.93,NE,47,0.0,0.0,53,0.00,,,0.00,0,LWC V2.00 B727,2013-11-18 04:01:00,
2013-11-17 21:06:00,60.7,43.0,29.93,NE,47,0.0,0.0,52,0.00,,,0.00,0,LWC V2.00 B727,2013-11-18 04:06:00,
2013-11-17 21:11:00,60.6,42.9,29.93,NE,47,0.0,0.0,52,0.00,,,0.00,0,LWC V2.00 B727,2013-11-18 04:11:00,
2013-11-17 21:16:00,60.6,43.4,29.93,NE,47,0.0,0.0,53,0.00,,,0.00,0,LWC V2.00 B727,2013-11-18 04:16:00,
2013-11-17 21:21:00,60.6,43.4,29.93,NE,47,0.0,0.0,53,0.00,,,0.00,0,LWC V2.00 B727,2013-11-18 04:21:00,
2013-11-17 21:26:00,60.8,43.6,29.93,NE,47,0.0,0.0,53,0.00,,,0.00,0,LWC V2.00 B727,2013-11-18 04:26:00,
2013-11-17 21:31:00,61.1,43.3,29.93,NE,47,0.0,0.0,52,0.00,,,0.00,0,LWC V2.00 B727,2013-11-18 04:31:00,
2013-11-17 21:36:00,61.3,43.5,29.93,NE,47,0.0,0.0,52,0.00,,,0.00,0,LWC V2.00 B727,2013-11-18 04:36:00,
2013-11-17 21:41:00,61.4,43.6,29.94,NE,47,0.0,0.0,52,0.00,,,0.00,0,LWC V2.00 B727,2013-11-18 04:41:00,
2013-11-17 21:46:00,61.7,43.9,29.94,NE,47,0.0,0.0,52,0.00,,,0.00,0,LWC V2.00 B727,2013-11-18 04:46:00,
2013-11-17 21:51:00,61.8,43.5,29.94,NE,47,0.0,0.0,51,0.00,,,0.00,0,LWC V2.00 B727,2013-11-18 04:51:00,
2013-11-17 21:56:00,61.7,43.4,29.94,NE,47,0.0,0.0,51,0.00,,,0.00,0,LWC V2.00 B727,2013-11-18 04:56:00,
2013-11-17 22:01:00,61.7,43.4,29.94,NE,47,0.0,0.0,51,0.00,,,0.00,0,LWC V2.00 B727,2013-11-18 05:01:00,
2013-11-17 22:06:00,61.6,43.3,29.94,NE,47,0.0,1.0,51,0.00,,,0.00,0,LWC V2.00 B727,2013-11-18 05:06:00,
2013-11-17 22:11:00,61.6,43.3,29.94,NE,47,0.0,0.0,51,0.00,,,0.00,0,LWC V2.00 B727,2013-11-18 05:11:00,
2013-11-17 22:16:00,61.6,43.3,29.94,NE,47,0.0,0.0,51,0.00,,,0.00,0,LWC V2.00 B727,2013-11-18 05:16:00,
2013-11-17 22:21:00,61.6,43.3,29.94,NE,47,0.0,0.0,51,0.00,,,0.00,0,LWC V2.00 B727,2013-11-18 05:21:00,
2013-11-17 22:26:00,61.7,43.4,29.94,NE,47,0.0,0.0,51,0.00,,,0.00,0,LWC V2.00 B727,2013-11-18 05:26:00,
2013-11-17 22:31:00,61.7,43.4,29.94,NE,47,0.0,0.0,51,0.00,,,0.00,0,LWC V2.00 B727,2013-11-18 05:31:00,
2013-11-17 22:36:00,61.7,43.4,29.94,NE,47,0.0,0.0,51,0.00,,,0.00,0,LWC V2.00 B727,2013-11-18 05:36:00,
2013-11-17 22:41:00,61.7,43.4,29.94,NE,47,0.0,0.0,51,0.00,,,0.00,0,LWC V2.00 B727,2013-11-18 05:41:00,
2013-11-17 22:46:00,61.8,43.5,29.94,NE,47,0.0,0.0,51,0.00,,,0.00,0,LWC V2.00 B727,2013-11-18 05:46:00,
2013-11-17 22:51:00,61.9,43.6,29.94,NE,47,0.0,0.0,51,0.00,,,0.00,0,LWC V2.00 B727,2013-11-18 05:51:00,
2013-11-17 22:56:00,61.7,43.4,29.95,NE,47,1.0,2.0,51,0.00,,,0.00,0,LWC V2.00 B727,2013-11-18 05:56:00,
2013-11-17 23:01:00,61.2,43.4,29.94,NE,47,0.0,0.0,52,0.00,,,0.00,0,LWC V2.00 B727,2013-11-18 06:01:00,
2013-11-17 23:06:00,60.9,43.2,29.94,NE,47,1.0,2.0,52,0.00,,,0.00,0,LWC V2.00 B727,2013-11-18 06:06:00,
2013-11-17 23:11:00,60.7,43.5,29.94,NE,47,0.0,0.0,53,0.00,,,0.00,0,LWC V2.00 B727,2013-11-18 06:11:00,
2013-11-17 23:16:00,60.6,43.4,29.95,NE,47,1.0,2.0,53,0.00,,,0.00,0,LWC V2.00 B727,2013-11-18 06:16:00,
2013-11-17 23:21:00,60.5,43.3,29.95,NE,47,0.0,0.0,53,0.00,,,0.00,0,LWC V2.00 B727,2013-11-18 06:21:00,
2013-11-17 23:26:00,60.4,43.2,29.94,NE,47,0.0,1.0,53,0.00,,,0.00,0,LWC V2.00 B727,2013-11-18 06:26:00,
2013-11-17 23:31:00,60.3,43.1,29.95,NE,47,0.0,2.0,53,0.00,,,0.00,0,LWC V2.00 B727,2013-11-18 06:31:00,
2013-11-17 23:36:00,60.1,43.4,29.94,NE,47,0.0,0.0,54,0.00,,,0.00,0,LWC V2.00 B727,2013-11-18 06:36:00,
2013-11-17 23:41:00,60.0,43.3,29.94,NE,47,0.0,0.0,54,0.00,,,0.00,0,LWC V2.00 B727,2013-11-18 06:41:00,
2013-11-17 23:46:00,59.9,43.2,29.94,NE,47,0.0,0.0,54,0.00,,,0.00,0,LWC V2.00 B727,2013-11-18 06:46:00,
2013-11-17 23:51:00,59.8,43.1,29.94,NE,47,0.0,0.0,54,0.00,,,0.00,0,LWC V2.00 B727,2013-11-18 06:51:00,
2013-11-17 23:56:00,59.6,43.4,29.94,NE,47,0.0,0.0,55,0.00,,,0.00,0,LWC V2.00 B727,2013-11-18 06:56:00,